Location: Seattle
(47.6064°N, 122.3308°W)
Time: 04:25:46
(UTC-08:00)

S-56A Canister/Altair - Pass Details

Date: 30 November 2020
Orbit: 633 x 2499 km, 38.9° (Epoch: 23 January)

Event Time Altitude Azimuth Distance (km) Brightness Sun altitude
Rises 22:40:01 0° 268° (W) 4,917 11.9 -59.8°
Enters shadow 22:42:11 - 265° (W) 4,202 11.5 -60.1°
Reaches altitude 10° 22:43:59 10° 262° (W) 3,605 - -60.2°
Maximum altitude 22:51:41 36° 200° (SSW) 1,650 - -61.0°
Drops below altitude 10° 22:57:06 10° 134° (SE) 2,510 - -61.5°
Sets 22:59:24 0° 125° (SE) 3,279 - -61.7°
